Total_Precipitation_Accumulation
2.85 2.93 2.97 3.05 2.86 2.77 2.70 2.40 2.09 2.16 2.24 2.18 1.91 1.85 1.90 1.91 2.03 2.26 2.54 2.49 2.37 2.51 2.83 3.08 3.26 3.30 3.25 3.26 3.26 3.23 3.10 3.03 2.97 2.79 2.51 2.28 2.12 2.08 2.13 2.25 2.25 2.16 2.09
3.15 3.21 3.27 3.26 3.07 3.05 2.98 2.71 2.48 2.58 2.51 2.45 2.20 2.06 2.05 2.10 2.16 2.33 2.56 2.58 2.28 2.13 2.41 2.88 3.20 3.41 3.47 3.50 3.37 3.23 3.19 3.11 3.09 2.91 2.68 2.44 2.26 2.17 2.12 2.14 2.22 2.19 2.10
3.36 3.46 3.56 3.44 3.22 3.13 3.13 3.06 2.90 2.84 2.73 2.52 2.39 2.36 2.31 2.17 2.14 2.37 2.55 2.60 2.42 2.28 2.37 2.54 2.78 3.09 3.49 3.71 3.61 3.47 3.37 3.30 3.18 3.01 2.86 2.66 2.45 2.28 2.17 2.13 2.13 2.14 2.10
3.29 3.57 3.66 3.48 3.25 3.13 3.23 3.36 3.21 3.10 3.04 2.95 2.69 2.46 2.36 2.31 2.21 2.26 2.29 2.39 2.52 2.43 2.49 2.45 2.55 2.74 3.08 3.41 3.67 3.73 3.62 3.47 3.33 3.18 3.07 2.90 2.75 2.51 2.31 2.25 2.19 2.14 2.11
3.43 3.64 3.73 3.73 3.45 3.40 3.49 3.36 3.53 3.37 3.33 3.13 2.72 2.56 2.32 2.15 2.18 2.14 2.21 2.20 2.25 2.30 2.36 2.40 2.51 2.57 2.78 3.10 3.37 3.56 3.63 3.58 3.37 3.14 3.09 3.06 2.91 2.69 2.50 2.40 2.29 2.19 2.12
3.59 3.77 3.76 3.81 3.68 3.72 3.91 3.86 3.85 3.66 3.35 3.16 2.74 2.53 2.28 2.03 1.95 1.99 1.97 1.96 1.95 1.94 2.02 2.10 2.27 2.27 2.40 2.64 3.02 3.33 3.77 3.87 3.62 3.40 3.29 3.14 2.95 2.70 2.51 2.47 2.42 2.35 2.27
4.17 4.36 4.15 4.08 3.90 3.85 3.91 3.90 3.77 3.67 3.47 3.39 3.28 2.90 2.42 2.02 1.86 1.72 1.74 1.81 1.76 1.72 1.81 1.96 2.01 2.02 2.06 2.15 2.36 2.77 3.45 3.79 3.72 3.57 3.53 3.35 3.08 2.84 2.64 2.57 2.55 2.53 2.44
4.79 4.68 4.59 4.29 4.09 3.97 3.82 3.73 3.65 3.55 3.31 3.30 3.34 3.25 2.82 2.46 2.00 1.57 1.67 1.71 1.69 1.75 1.76 1.70 1.73 1.73 1.70 1.84 1.96 2.30 2.74 3.04 3.40 3.63 3.68 3.40 3.19 3.02 2.88 2.75 2.69 2.65 2.61
4.64 4.50 4.41 4.22 4.09 3.92 3.74 3.70 3.63 3.55 3.39 3.33 3.35 3.47 3.25 2.72 2.20 1.81 1.66 1.65 1.71 1.77 1.75 1.70 1.63 1.62 1.63 1.72 1.78 2.03 2.34 2.47 2.81 3.17 3.45 3.29 3.14 3.16 3.11 3.05 2.99 2.94 2.87
4.31 4.15 4.19 4.12 3.99 3.79 3.61 3.34 3.32 3.41 3.53 3.33 3.21 3.00 2.85 2.60 2.45 2.18 1.92 1.79 1.72 1.69 1.69 1.65 1.55 1.60 1.66 1.78 1.94 1.98 2.06 2.12 2.31 2.58 2.76 2.82 2.85 2.96 3.07 3.01 3.04 3.12 3.12
4.00 3.74 3.72 3.68 3.50 3.32 3.19 3.03 2.98 3.05 3.15 3.11 3.07 2.96 2.83 2.64 2.41 2.30 2.12 1.93 1.86 1.73 1.65 1.66 1.65 1.65 1.71 1.75 1.83 1.87 1.93 1.94 2.04 2.16 2.24 2.36 2.51 2.70 2.87 2.96 3.04 3.17 3.31
3.79 3.50 3.19 3.12 3.07 2.91 2.69 2.63 2.63 2.62 2.70 2.76 2.83 2.75 2.59 2.50 2.43 2.42 2.27 2.08 2.00 1.87 1.76 1.74 1.71 1.66 1.69 1.63 1.57 1.75 1.72 1.72 1.78 1.89 1.96 2.00 2.11 2.29 2.45 2.64 2.91 3.10 3.23
3.29 3.04 2.83 2.70 2.61 2.53 2.42 2.35 2.35 2.23 2.19 2.25 2.26 2.38 2.38 2.29 2.18 2.26 2.33 2.21 2.02 1.90 1.81 1.73 1.62 1.55 1.52 1.58 1.64 1.65 1.52 1.50 1.45 1.49 1.57 1.69 1.84 1.98 2.04 2.18 2.37 2.62 2.84
2.76 2.54 2.47 2.28 2.07 1.93 1.87 1.93 1.98 1.92 1.89 1.88 1.85 2.05 2.14 2.11 2.06 2.06 2.12 2.28 2.23 2.01 1.90 1.75 1.62 1.55 1.51 1.53 1.63 1.50 1.39 1.38 1.33 1.33 1.37 1.42 1.57 1.77 1.85 1.84 1.81 1.89 2.05
2.19 2.10 2.01 1.95 1.86 1.74 1.67 1.65 1.69 1.75 1.75 1.69 1.70 1.80 1.83 1.80 1.81 1.86 1.95 2.11 2.31 2.21 2.01 1.80 1.75 1.68 1.65 1.62 1.72 1.48 1.45 1.42 1.36 1.39 1.39 1.41 1.49 1.68 1.75 1.73 1.60 1.51 1.50
1.89 1.75 1.68 1.63 1.64 1.59 1.56 1.62 1.61 1.63 1.70 1.62 1.57 1.55 1.54 1.49 1.57 1.61 1.71 1.83 2.02 2.16 2.03 1.68 1.63 1.68 1.70 1.59 1.77 1.58 1.52 1.50 1.44 1.59 1.70 1.64 1.63 1.80 1.94 1.96 1.77 1.61 1.55
1.65 1.55 1.47 1.41 1.37 1.40 1.40 1.44 1.42 1.38 1.35 1.31 1.26 1.24 1.27 1.34 1.45 1.46 1.50 1.64 1.85 2.05 2.11 1.72 1.58 1.69 1.83 1.79 1.83 1.74 1.62 1.63 1.61 1.94 2.08 2.27 2.05 1.96 2.04 2.07 2.00 1.76 1.60
1.48 1.41 1.29 1.22 1.18 1.15 1.14 1.14 1.17 1.19 1.18 1.13 1.14 1.20 1.20 1.24 1.32 1.40 1.46 1.52 1.68 1.94 2.11 2.00 1.77 1.80 1.87 1.84 1.91 1.87 1.66 1.57 1.61 2.04 2.26 2.54 2.49 2.22 2.22 2.11 2.02 1.82 1.66
1.32 1.26 1.20 1.16 1.10 1.08 1.03 0.99 1.00 1.07 1.08 1.04 1.08 1.14 1.19 1.35 1.35 1.39 1.46 1.49 1.61 1.75 2.07 2.11 1.91 1.91 1.97 1.98 2.13 1.97 1.79 1.77 1.52 1.82 2.23 2.54 2.62 2.62 2.69 2.57 2.32 1.97 1.72
1.27 1.22 1.20 1.12 1.06 1.01 0.99 0.97 0.96 1.00 1.02 1.02 1.08 1.15 1.20 1.33 1.41 1.46 1.47 1.55 1.64 1.78 1.97 2.12 2.06 2.05 2.11 2.16 2.19 2.11 1.98 1.84 1.66 1.60 2.04 2.46 2.77 2.82 2.95 3.04 2.80 2.35 1.97
1.18 1.18 1.18 1.11 1.08 1.00 0.93 0.93 0.93 0.95 1.03 1.04 1.02 1.04 1.09 1.20 1.30 1.30 1.22 1.32 1.52 1.77 1.84 2.04 2.09 2.12 2.11 2.18 2.08 1.87 1.82 1.78 1.64 1.55 1.75 2.10 2.77 3.09 3.12 3.20 3.10 2.62 2.18
1.25 1.22 1.17 1.12 1.04 0.84 0.89 0.91 0.90 0.96 1.01 1.02 1.02 1.01 0.97 0.96 0.94 0.96 1.01 1.08 1.25 1.55 1.90 2.14 2.10 2.07 1.97 1.90 1.92 1.87 1.88 1.90 1.84 1.55 1.52 1.75 2.31 3.09 3.30 3.23 3.16 2.56 2.04
1.26 1.20 1.14 1.13 1.05 0.94 0.92 0.84 0.86 0.95 1.03 1.09 1.13 1.10 0.88 0.77 0.88 0.94 0.99 1.04 1.16 1.35 1.68 2.07 2.16 1.95 1.89 1.86 1.93 1.93 1.99 2.02 1.88 1.58 1.64 1.86 2.18 2.86 3.01 2.97 2.89 2.25 1.80
1.25 1.25 1.22 1.19 1.16 1.02 0.93 0.81 0.84 0.90 1.02 1.03 1.04 1.07 1.08 0.99 0.93 1.03 1.09 1.17 1.28 1.40 1.51 1.63 1.98 1.81 1.61 1.66 1.80 1.87 1.99 2.04 1.92 1.71 1.75 2.02 2.21 2.66 2.63 2.68 2.57 2.10 1.72
1.21 1.18 1.16 1.17 1.22 1.16 1.01 0.87 0.81 0.84 0.94 0.95 0.91 0.90 0.90 0.93 1.03 1.21 1.32 1.53 1.64 1.73 1.62 1.76 1.94 1.88 1.73 1.70 1.64 1.78 2.09 2.16 2.02 1.84 1.83 2.12 2.24 2.32 2.41 2.45 2.19 1.98 1.69
1.20 1.15 1.13 1.16 1.15 1.06 0.89 0.76 0.74 0.75 0.89 0.93 0.97 0.93 0.85 0.81 0.95 1.14 1.37 1.69 1.85 1.91 1.76 1.86 2.13 2.15 1.97 1.98 1.98 1.94 2.16 2.26 2.16 2.06 1.80 1.92 2.10 2.11 2.30 2.21 2.02 1.86 1.77